Volver al catálogo

ONEWEB-0038

ActivoComunicacionesPO
NORAD 45145·PAYLOAD·🇬🇧 United Kingdom

Lanzado Feb 6, 2020 desde Baikonur Cosmodrome

Loading…

Próximos Pases (próximas 24 horas)

TLE

ActualizadoSource: CelesTrak SupGP

Época: Sep 14, 2026, 23:25 UTC

1 45145C 20008Q   26257.97621946 -.00000895  00000+0 -25277-2 0  2570
2 45145  87.8990   3.2367 0002938  70.5665 318.0276 13.11420437    18

Sigue ONEWEB-0038 en tiempo real con AllMySat

Download on the App Store